This demonstration page uses our WeatherBlox Daily Observations layout. Learn more.

Left ArrowRight Arrow

36.19886, -115.1175

Hourly Observations for May 3, 2021

Temp ( °F °C ) Dew Point ( °F °C ) Humidity (%) Winds ( mph kmh ) Pressure ( in mb ) Visibility ( mi km ) Precip ( " mm )
12:53 am 00:53 Clear 72 22.2 26 -3.3 18 18 NNW 17 28 29.72 1006 10 16 N/A
1:53 am 01:53 Clear 70 21.1 25 -3.9 18 18 NNW 10 17 29.72 1006 10 16 N/A
2:53 am 02:53 Clear 69 20.6 26 -3.3 20 20 NW 17 28 29.72 1006 10 16 N/A
3:53 am 03:53 Clear 68 20 26 -3.3 21 21 NW 18 30 29.73 1007 10 16 N/A
4:53 am 04:53 Clear 67 19.4 27 -2.8 22 22 NW 22 35 29.74 1007 10 16 N/A
5:53 am 05:53 Sunny 67 19.4 27 -2.8 22 22 NW 22 35 29.76 1008 10 16 N/A
6:53 am 06:53 Sunny 68 20 27 -2.8 21 21 NW 28 44 29.78 1009 10 16 N/A
7:53 am 07:53 Sunny 70 21.1 27 -2.8 20 20 NW 24 39 29.79 1009 10 16 N/A
8:53 am 08:53 Sunny 72 22.2 26 -3.3 18 18 NW 25 41 29.80 1009 10 16 N/A
9:53 am 09:53 Sunny 75 23.9 24 -4.4 15 15 NW 21 33 29.81 1010 10 16 N/A
10:53 am 10:53 Sunny 76 24.4 23 -5 14 14 NW 20 31 29.81 1010 10 16 N/A
11:53 am 11:53 Sunny 79 26.1 21 -6.1 11 11 NW 20 31 29.80 1009 10 16 N/A
12:53 pm 12:53 Sunny 80 26.7 20 -6.7 10 10 NW 15 24 29.79 1009 10 16 N/A
1:53 pm 13:53 Sunny 81 27.2 18 -7.8 9 9 NW 20 31 29.78 1008 10 16 N/A
2:53 pm 14:53 Sunny 82 27.8 17 -8.3 9 9 W 13 20 29.78 1008 10 16 N/A
3:08 pm 15:08 Sunny 82 27.8 17 -8.3 9 9 WNW 12 19 29.64 1004 10 16 N/A
3:53 pm 15:53 Sunny 83 28.3 16 -8.9 8 8 NW 17 28 29.76 1008 10 16 N/A
4:53 pm 16:53 Sunny 84 28.9 16 -8.9 8 8 NW 14 22 29.75 1007 10 16 N/A
5:53 pm 17:53 Sunny 84 28.9 15 -9.4 7 7 NW 17 28 29.75 1008 10 16 N/A
6:53 pm 18:53 Sunny 83 28.3 15 -9.4 8 8 NW 13 20 29.76 1008 10 16 N/A
7:53 pm 19:53 Clear 80 26.7 15 -9.4 8 8 NW 8 13 29.78 1009 10 16 N/A
8:53 pm 20:53 Clear 78 25.6 15 -9.4 9 9 NNE 5 7 29.81 1009 10 16 N/A
9:53 pm 21:53 Clear 75 23.9 14 -10 10 10 NW 7 11 29.83 1010 10 16 N/A
10:53 pm 22:53 Clear 72 22.2 19 -7.2 13 13 WNW 9 15 29.83 1010 10 16 N/A
11:53 pm 23:53 Clear 73 22.8 10 -12.2 9 9 N 7 11 29.85 1011 10 16 N/A

Powered by AerisWeather